TimeEDT,TemperatureF,Dew PointF,Humidity,Sea Level PressureIn,VisibilityMPH,Wind Direction,Wind SpeedMPH,Gust SpeedMPH,PrecipitationIn,Events,Conditions,WindDirDegrees,DateUTC
12:53 AM,43.0,39.9,89,30.22,10.0,Calm,Calm,-,N/A,,Scattered Clouds,0,2012-10-04 04:53:00
1:53 AM,43.0,39.9,89,30.23,10.0,Calm,Calm,-,N/A,,Scattered Clouds,0,2012-10-04 05:53:00
2:53 AM,42.1,39.9,92,30.22,10.0,Calm,Calm,-,N/A,,Mostly Cloudy,0,2012-10-04 06:53:00
3:53 AM,39.9,39.0,97,30.22,10.0,Calm,Calm,-,N/A,,Partly Cloudy,0,2012-10-04 07:53:00
4:53 AM,41.0,39.0,93,30.24,10.0,Calm,Calm,-,N/A,,Clear,0,2012-10-04 08:53:00
5:53 AM,41.0,37.9,89,30.24,10.0,Calm,Calm,-,N/A,,Clear,0,2012-10-04 09:53:00
6:53 AM,41.0,39.0,93,30.24,10.0,Calm,Calm,-,N/A,,Clear,0,2012-10-04 10:53:00
7:53 AM,44.1,41.0,89,30.26,10.0,Calm,Calm,-,N/A,,Clear,0,2012-10-04 11:53:00
8:53 AM,48.9,44.1,83,30.24,10.0,Calm,Calm,-,N/A,,Clear,0,2012-10-04 12:53:00
9:53 AM,54.0,45.0,72,30.25,10.0,Calm,Calm,-,N/A,,Clear,0,2012-10-04 13:53:00
10:53 AM,57.9,45.0,62,30.23,10.0,Variable,3.5,-,N/A,,Clear,0,2012-10-04 14:53:00
11:53 AM,59.0,45.0,60,30.20,10.0,Calm,Calm,-,N/A,,Clear,0,2012-10-04 15:53:00
12:53 PM,60.1,45.0,57,30.17,10.0,Calm,Calm,-,N/A,,Overcast,0,2012-10-04 16:53:00
1:53 PM,61.0,46.0,58,30.14,10.0,Calm,Calm,-,N/A,,Mostly Cloudy,0,2012-10-04 17:53:00
2:53 PM,61.0,45.0,56,30.12,10.0,Calm,Calm,-,N/A,,Mostly Cloudy,0,2012-10-04 18:53:00
3:53 PM,61.0,46.0,58,30.11,10.0,South,4.6,-,N/A,,Overcast,180,2012-10-04 19:53:00
4:53 PM,59.0,46.0,62,30.09,10.0,ESE,4.6,-,N/A,,Overcast,110,2012-10-04 20:53:00
5:53 PM,57.9,46.9,67,30.08,10.0,SE,4.6,-,N/A,,Overcast,140,2012-10-04 21:53:00
6:53 PM,55.9,48.9,77,30.10,10.0,West,3.5,-,N/A,,Overcast,280,2012-10-04 22:53:00
7:53 PM,54.0,51.1,90,30.09,4.0,SE,3.5,-,0.07,Rain,Rain,130,2012-10-04 23:53:00
8:53 PM,52.0,50.0,93,30.06,6.0,SE,3.5,-,0.09,Rain,Rain,140,2012-10-05 00:53:00
9:48 PM,51.8,50.0,94,30.05,5.0,SSE,3.5,-,0.09,Rain,Rain,150,2012-10-05 01:48:00
9:53 PM,52.0,50.0,93,30.06,5.0,South,3.5,-,0.10,Rain,Rain,170,2012-10-05 01:53:00
10:25 PM,51.8,50.0,94,30.05,6.0,Calm,Calm,-,0.06,Rain,Rain,0,2012-10-05 02:25:00
10:53 PM,51.8,50.0,94,30.05,7.0,Calm,Calm,-,N/A,Rain,Light Rain,0,2012-10-05 02:53:00
11:05 PM,51.8,50.0,94,30.04,10.0,South,3.5,-,0.01,Rain,Light Rain,190,2012-10-05 03:05:00
11:30 PM,51.8,50.0,94,30.03,10.0,Calm,Calm,-,0.01,Rain,Light Rain,0,2012-10-05 03:30:00
11:53 PM,52.0,50.0,93,30.03,10.0,SSE,3.5,-,0.01,Rain,Light Rain,150,2012-10-05 03:53:00